Weather History for Chicago Executive, IL

Change the Weather History Date:

Saturday, January 28, 2012

  Actual Average Record
Temperature  
Mean Temperature 31 °F 24 °F  
Max Temperature 35 °F 31 °F 49 °F (2006)
Min Temperature 27 °F 17 °F -11 °F (2014)
Degree Days  
Heating Degree Days 34 41  
Month to date heating degree days 960 1160  
Since 1 July heating degree days 3577  
Cooling Degree Days 0 0  
Month to date cooling degree days 0 0  
Year to date cooling degree days 0 0  
Moisture  
Dew Point 24 °F    
Average Humidity 71    
Maximum Humidity 89    
Minimum Humidity 48    
Precipitation  
Precipitation T in 0.05 in 0.15 in (2006)
Month to date precipitation 0.75 1.48  
Year to date precipitation 0.75 1.48  
Sea Level Pressure  
Sea Level Pressure 29.94 in    
Wind  
Wind Speed 13 mph (WSW)    
Max Wind Speed 24 mph    
Max Gust Speed 35 mph    
Visibility 8 miles    
Events Snow    
T = Trace of Precipitation, MM = Missing Value Source: NWS Daily Summary

Daily Weather History Graph

Daily Weather History Graph

Search for Another Location

Airport:

Trip Planner

Search our weather history database for the weather conditions in past years. The results will help you decide how hot, cold, wet, or windy it might be!

Date:

Astronomy

Jan. 28, 2012 Rise Set
Actual Time 7:08 AM CST 5:00 PM CST
Civil Twilight 6:39 AM CST 5:30 PM CST
Nautical Twilight 6:05 AM CST 6:04 PM CST
Astronomical Twilight 5:32 AM CST 6:37 PM CST
Moon 9:23 AM CST (1/28) 10:56 PM CST (1/28)
Length of Visible Light 10h 51m
Length of Day
9h 51m
Waxing Crescent, 28% of the Moon is Illuminated
Jan 28
Waxing Crescent
Jan 30
First Quarter
Feb 7
Full
Feb 14
Last Quarter
Feb 21
New

Hourly Weather History & Observations

Time (CST) Temp. Windchill Dew Point Humidity Pressure Visibility Wind Dir Wind Speed Gust Speed Precip Events Conditions
12:23 AM 33.8 °F 28.6 °F 30.2 °F 87% 29.86 in 3.0 mi SSW 5.8 mph - 0.00 in Snow Light Snow
12:41 AM 33.8 °F 27.0 °F 30.2 °F 87% 29.85 in 2.5 mi SSW 8.1 mph - 0.00 in Snow Light Snow
12:52 AM 34.0 °F 25.5 °F 30.9 °F 89% 29.86 in 1.8 mi SW 11.5 mph - 0.00 in Snow Light Snow
1:02 AM 33.8 °F 25.8 °F 30.2 °F 87% 29.84 in 2.0 mi SSW 10.4 mph - 0.00 in Snow Light Snow
1:49 AM 33.8 °F 24.8 °F 30.2 °F 87% 29.83 in 1.8 mi SSW 12.7 mph 18.4 mph 0.00 in Snow Light Snow
1:52 AM 34.0 °F 26.0 °F 30.9 °F 89% 29.84 in 1.5 mi SSW 10.4 mph 18.4 mph 0.00 in Snow Light Snow
2:13 AM 33.8 °F 27.0 °F 30.2 °F 87% 29.82 in 2.0 mi SW 8.1 mph - 0.00 in Snow Light Snow
2:43 AM 33.8 °F 27.0 °F 30.2 °F 87% 29.81 in 3.0 mi SW 8.1 mph - 0.00 in Snow Light Snow
2:52 AM 34.0 °F 26.0 °F 30.9 °F 89% 29.82 in 3.0 mi SW 10.4 mph - 0.00 in Snow Light Snow
3:14 AM 35.6 °F 28.0 °F 30.2 °F 81% 29.80 in 6.0 mi WSW 10.4 mph - 0.00 in Snow Light Snow
3:45 AM 35.6 °F 26.6 °F 30.2 °F 81% 29.79 in 10.0 mi West 13.8 mph 20.7 mph 0.00 in   Overcast
3:52 AM 35.1 °F 27.9 °F 30.0 °F 82% 29.81 in 10.0 mi West 9.2 mph 20.7 mph 0.00 in   Overcast
4:52 AM 35.1 °F 25.2 °F 28.9 °F 78% 29.83 in 10.0 mi West 16.1 mph 21.9 mph N/A   Overcast
5:20 AM 33.8 °F 23.5 °F 28.4 °F 81% 29.82 in 2.0 mi West 16.1 mph 21.9 mph 0.00 in Snow Light Snow
5:30 AM 33.8 °F 24.3 °F 28.4 °F 81% 29.83 in 6.0 mi WNW 13.8 mph 23.0 mph 0.00 in Snow Light Snow
5:52 AM 33.1 °F 23.4 °F 25.0 °F 72% 29.86 in 10.0 mi WNW 13.8 mph 25.3 mph 0.00 in   Overcast
6:00 AM 33.8 °F 22.8 °F 24.8 °F 70% 29.85 in 10.0 mi WNW 18.4 mph 25.3 mph N/A   Overcast
6:52 AM 30.0 °F 20.0 °F 19.9 °F 66% 29.91 in 10.0 mi West 12.7 mph 23.0 mph N/A   Clear
7:52 AM 28.0 °F 16.5 °F 18.0 °F 66% 29.96 in 10.0 mi West 15.0 mph 23.0 mph N/A   Clear
8:52 AM 28.0 °F 17.5 °F 17.1 °F 63% 29.99 in 10.0 mi West 12.7 mph 23.0 mph N/A   Clear
9:52 AM 28.9 °F 16.5 °F 17.1 °F 61% 30.02 in 10.0 mi West 18.4 mph 28.8 mph N/A   Clear
10:52 AM 30.0 °F 19.1 °F 18.0 °F 61% 30.05 in 10.0 mi West 15.0 mph 26.5 mph N/A   Clear
11:52 AM 30.9 °F 19.8 °F 17.1 °F 57% 30.04 in 10.0 mi West 16.1 mph 28.8 mph N/A   Clear
12:52 PM 32.0 °F 21.6 °F 17.1 °F 54% 30.05 in 10.0 mi West 15.0 mph 25.3 mph N/A   Clear
1:52 PM 33.1 °F 21.9 °F 16.0 °F 50% 30.05 in 10.0 mi West 18.4 mph 27.6 mph N/A   Clear
2:52 PM 33.1 °F 21.5 °F 15.1 °F 48% 30.08 in 10.0 mi West 19.6 mph 27.6 mph N/A   Clear
3:52 PM 32.0 °F 20.8 °F 17.1 °F 54% 30.10 in 10.0 mi West 17.3 mph 25.3 mph N/A   Clear
4:52 PM 32.0 °F 22.1 °F 15.1 °F 50% 30.11 in 10.0 mi WSW 13.8 mph 19.6 mph N/A   Clear
5:52 PM 30.9 °F 20.7 °F 15.1 °F 52% 30.12 in 10.0 mi WSW 13.8 mph 21.9 mph N/A   Clear
6:52 PM 30.9 °F 23.5 °F 18.0 °F 59% 30.13 in 10.0 mi WSW 8.1 mph - N/A   Clear
7:52 PM 32.0 °F 24.8 °F 19.9 °F 61% 30.12 in 10.0 mi SW 8.1 mph - N/A   Overcast
8:52 PM 32.0 °F 24.2 °F 23.0 °F 69% 30.11 in 10.0 mi SW 9.2 mph - N/A   Overcast
9:52 PM 30.9 °F 22.8 °F 23.0 °F 72% 30.08 in 10.0 mi SW 9.2 mph - N/A   Overcast
11:52 PM 30.0 °F 23.2 °F 21.0 °F 69% 30.05 in 10.0 mi WSW 6.9 mph - N/A   Clear